Wind_Speed
24 25 27 30 32 35 37 35 36 39 43 48 47 46 43 42 40 39 36 39 41 40 44 48 49 51 47 44 48 43 43 38 34 33 33 38 34 27 27 30 29 24 24 22 19
25 26 29 31 32 34 31 30 31 33 34 37 42 42 42 45 46 42 42 40 42 41 42 47 49 53 54 47 48 47 45 38 34 36 37 41 32 30 26 31 30 27 25 22 22
28 28 30 31 33 34 32 31 32 33 33 36 38 40 44 45 45 43 43 45 46 45 45 48 51 51 56 53 47 51 48 39 37 38 41 42 32 32 25 28 32 31 27 20 23
29 30 30 29 33 36 34 31 30 34 36 38 40 43 45 45 44 44 45 45 47 47 46 49 52 53 53 57 52 49 49 42 41 40 42 40 34 30 28 25 32 29 25 22 27
30 31 30 31 33 36 36 34 34 32 36 37 39 39 40 41 43 45 48 46 49 51 52 51 54 53 51 55 56 54 46 44 43 43 43 41 34 29 26 27 33 30 27 25 27
31 32 32 33 33 36 36 35 36 34 35 37 37 39 41 43 46 47 51 53 52 53 55 55 55 56 55 55 59 55 47 47 46 47 46 41 34 33 26 38 30 26 27 27 28
34 33 33 33 34 36 37 35 37 37 35 35 38 43 47 44 47 51 52 52 52 52 53 56 56 59 58 57 57 57 52 49 50 50 46 41 37 30 33 39 30 27 27 25 27
34 34 32 34 34 36 37 34 36 38 38 41 47 49 47 45 48 49 50 53 52 49 50 54 57 59 61 61 59 60 57 52 50 50 46 43 33 34 39 32 31 26 28 25 26
36 35 32 33 35 37 38 33 36 38 39 43 44 46 47 42 45 48 50 49 49 51 54 56 58 60 60 58 57 62 60 53 54 51 45 47 35 36 38 32 30 29 27 25 25
38 36 33 31 34 38 39 35 34 37 40 42 44 47 45 42 45 46 47 46 47 46 53 54 58 64 65 61 63 54 59 56 53 53 46 44 38 39 39 34 29 30 28 26 25
39 37 34 31 32 37 41 35 39 40 43 42 43 47 42 41 43 45 45 45 48 47 49 55 61 60 67 60 60 54 57 57 52 49 47 42 40 39 39 35 29 27 29 27 27
39 37 34 31 32 36 38 38 38 42 44 43 47 44 41 41 42 44 45 44 45 49 55 60 69 68 58 61 61 56 58 52 49 52 45 41 41 37 38 36 31 28 28 27 27
39 36 33 32 32 36 35 36 39 45 45 45 46 45 40 41 43 42 41 40 40 45 41 45 45 49 64 64 58 57 58 52 51 52 43 43 39 35 34 38 31 30 31 29 28
38 34 33 31 33 35 34 36 43 50 49 49 45 40 41 40 41 43 39 34 34 33 37 42 39 51 57 63 57 56 53 47 54 50 42 43 37 37 36 35 33 30 31 30 29
37 32 32 30 32 33 35 37 41 48 46 48 41 36 40 35 33 37 30 27 28 31 36 34 39 49 56 56 53 47 37 50 53 47 44 42 38 30 34 34 32 29 31 31 29
34 31 30 30 31 33 35 38 45 41 47 45 40 36 37 36 23 31 28 28 31 34 28 36 36 43 56 56 56 51 48 48 48 50 44 38 33 32 32 35 33 30 29 29 29
32 29 29 29 30 32 32 36 38 39 38 32 34 28 30 26 22 25 19 30 31 34 40 25 40 52 56 54 54 48 51 52 48 48 40 38 34 27 35 32 31 29 29 29 30
30 28 27 28 28 29 29 32 32 34 26 27 32 33 28 21 24 22 24 28 32 34 11 34 51 52 55 64 48 53 55 45 48 46 38 31 31 32 30 29 31 26 28 28 30
27 25 24 25 27 25 28 28 29 30 26 26 32 26 19 18 19 23 22 26 31 30 23 45 48 50 48 52 44 54 36 46 45 41 35 33 29 28 29 29 27 28 25 29 29
24 23 23 22 24 24 26 27 27 24 23 23 24 7 2 9 20 19 27 37 32 34 39 49 44 48 41 51 51 47 46 43 42 37 30 30 28 29 26 26 27 26 28 31 31
23 22 23 21 22 20 25 22 24 20 22 19 7 4 6 14 15 22 44 31 36 43 38 26 43 49 31 58 46 48 44 41 39 37 28 22 25 26 23 25 24 24 27 28 28
22 21 21 20 19 17 21 16 18 19 19 9 2 4 6 13 23 26 24 30 49 42 30 25 16 35 51 50 50 26 40 38 35 34 32 27 26 24 21 20 20 24 27 28 28
21 21 19 18 17 15 19 13 16 18 15 6 7 9 13 21 35 27 26 44 49 37 30 18 22 31 43 40 39 44 32 33 34 33 33 30 28 23 19 22 23 22 23 25 27
22 21 18 16 16 16 18 15 13 14 6 4 9 8 13 20 30 32 32 38 45 28 24 27 26 29 36 30 32 31 34 34 33 34 35 33 29 26 26 26 23 22 24 26 27
21 20 18 14 14 15 18 14 13 16 10 2 6 12 11 16 27 32 35 35 42 30 28 29 33 36 35 33 36 33 29 32 37 25 26 27 28 28 28 25 24 24 27 28 28
21 20 19 15 14 16 20 10 9 11 18 6 3 9 12 14 18 25 35 35 33 35 28 25 24 26 27 27 29 34 35 33 31 28 28 27 26 25 27 28 26 26 28 28 27
23 21 19 16 16 16 19 15 9 16 13 15 8 8 10 20 23 24 28 26 25 28 23 25 27 28 29 29 31 34 34 36 31 31 31 27 26 35 30 31 30 27 27 26 26
Wind_Direction
289 295 297 293 289 290 285 282 272 266 263 254 253 253 256 258 260 261 257 256 253 252 250 248 246 243 242 241 239 241 237 235 242 245 248 248 241 240 236 236 236 237 244 258 247
288 293 297 297 292 291 285 280 273 273 272 265 255 254 249 254 259 262 258 256 252 252 249 246 245 242 240 239 238 239 238 235 239 244 245 250 243 238 234 236 238 236 241 245 236
288 291 296 299 296 293 285 280 275 276 274 265 257 254 258 259 257 257 255 258 255 252 249 246 245 245 240 238 239 236 236 235 235 241 245 248 246 238 232 236 236 235 240 246 228
286 290 294 296 293 297 283 280 275 276 272 264 259 256 258 259 262 261 261 259 258 255 250 245 244 243 243 239 237 240 236 234 230 236 245 247 244 241 231 235 240 236 241 239 228
286 288 293 296 293 296 287 277 272 273 269 264 261 262 263 266 266 264 260 258 257 255 249 243 242 240 240 239 237 236 235 234 231 235 242 245 244 241 227 233 236 232 235 233 230
289 290 293 297 296 294 294 278 271 271 270 264 264 274 273 272 270 265 261 258 255 251 249 243 238 239 237 236 235 237 233 232 230 233 239 242 240 241 225 231 238 237 235 236 235
289 292 296 300 298 294 296 281 274 271 273 271 275 278 274 275 272 267 260 254 249 246 242 241 237 236 235 235 235 232 231 228 228 231 236 238 234 237 230 230 234 237 235 240 239
286 291 296 299 300 295 296 286 278 276 275 279 280 280 279 273 271 264 255 248 244 242 242 241 239 234 232 232 231 230 228 226 225 228 234 236 226 232 232 236 233 239 238 239 243
285 289 297 299 301 297 296 287 281 277 277 279 278 279 278 274 268 257 252 247 246 246 244 240 239 236 233 229 229 228 225 224 226 228 230 233 225 233 236 236 234 232 238 240 239
282 289 296 300 301 298 298 286 284 279 279 280 279 281 280 273 266 261 255 252 252 250 246 248 244 236 229 223 225 226 224 225 223 230 229 233 227 232 239 238 238 235 237 239 237
278 286 293 300 299 298 298 292 292 287 286 285 284 282 281 274 269 260 256 255 250 248 252 248 240 230 226 224 225 221 223 224 223 227 228 230 228 232 237 239 235 236 236 239 235
275 283 291 298 299 298 294 293 295 295 293 289 289 288 281 274 270 263 261 258 254 255 258 248 242 236 229 218 215 219 220 221 223 226 226 228 230 233 235 239 235 235 235 237 237
271 280 288 297 298 300 294 293 297 299 293 292 297 289 279 278 269 265 262 257 259 256 240 235 231 216 217 210 207 212 216 218 220 230 223 226 230 234 235 240 235 234 235 239 240
268 278 286 296 298 301 292 293 298 300 296 296 296 286 272 279 271 266 258 255 251 236 229 226 211 201 207 202 203 208 208 211 221 222 222 224 230 232 234 239 237 236 234 239 242
265 276 284 294 298 303 291 290 297 300 291 298 299 288 282 274 270 264 253 245 228 230 223 217 201 201 198 184 199 199 190 215 220 217 222 223 229 235 234 236 238 236 232 238 242
262 273 280 291 298 303 293 292 299 300 294 300 300 297 288 275 260 256 251 225 221 221 227 183 191 197 186 188 200 202 208 216 220 218 219 225 230 227 236 234 235 235 231 236 240
259 270 278 288 295 302 294 298 302 306 312 309 309 302 292 264 259 243 223 212 215 214 184 184 180 190 186 192 186 195 203 207 208 213 214 221 228 215 231 236 235 233 232 236 239
254 266 275 286 292 300 293 302 309 309 307 311 305 308 283 245 232 203 207 208 205 190 239 180 177 184 179 194 182 191 205 210 203 209 213 220 227 226 232 238 238 233 233 238 245
250 264 272 287 289 295 293 301 311 304 305 313 306 312 275 236 213 196 194 197 192 193 188 172 175 178 191 203 192 188 190 200 201 205 217 220 228 232 228 231 233 233 234 240 246
245 261 267 284 289 290 289 296 310 301 314 314 312 334 219 212 185 175 181 171 170 193 172 158 177 187 202 184 197 199 203 196 200 205 210 220 225 233 229 233 234 234 236 244 250
240 257 265 281 289 285 289 298 314 300 317 302 317 53 163 163 167 179 159 165 177 187 164 167 171 187 179 191 187 194 198 199 200 208 206 216 225 234 226 229 233 237 240 242 247
236 251 260 273 287 280 287 300 320 289 331 318 274 114 148 145 143 152 147 165 179 174 150 123 136 174 195 193 199 198 192 195 204 210 215 220 226 227 229 236 240 241 244 248 252
232 245 254 265 282 272 271 301 332 289 322 13 133 139 140 156 154 153 160 173 183 172 160 128 134 183 182 196 212 212 198 197 208 214 214 223 235 228 237 241 245 246 247 249 253
226 239 247 257 270 264 269 276 330 296 332 29 105 130 162 164 168 169 170 182 177 173 171 166 162 177 189 195 202 209 219 210 217 222 221 221 233 230 246 250 253 257 259 259 260
224 232 241 239 261 258 264 280 314 289 262 184 115 104 133 174 173 173 180 183 189 189 181 179 179 190 202 207 208 215 221 213 216 222 220 225 235 239 245 260 264 261 259 261 263
220 223 236 236 250 248 255 278 326 275 251 191 185 117 123 149 177 186 180 189 195 196 202 201 204 207 214 214 216 218 221 221 233 229 231 232 234 240 260 260 258 254 254 260 265
215 221 233 236 238 245 248 273 289 295 255 221 203 169 149 162 178 181 182 184 190 199 203 209 219 216 220 224 226 225 228 230 224 224 235 234 247 246 245 259 260 262 263 265 265
Height
5753 5751 5749 5747 5745 5743 5740 5737 5736 5735 5736 5739 5740 5742 5743 5743 5745 5747 5748 5749 5750 5753 5755 5758 5762 5766 5770 5774 5778 5782 5786 5790 5796 5798 5798 5795 5802 5806 5809 5811 5812 5814 5814 5813 5814
5746 5744 5742 5740 5737 5734 5731 5730 5729 5728 5728 5728 5731 5733 5734 5735 5736 5737 5740 5740 5741 5745 5747 5749 5753 5756 5761 5767 5770 5774 5779 5787 5791 5791 5791 5790 5797 5802 5805 5806 5808 5809 5809 5809 5809
5739 5737 5735 5732 5730 5727 5725 5723 5722 5721 5720 5721 5722 5723 5724 5724 5725 5727 5728 5730 5732 5736 5739 5742 5744 5747 5752 5758 5764 5768 5772 5782 5784 5785 5784 5786 5793 5796 5799 5801 5803 5803 5803 5805 5806
5732 5730 5728 5725 5723 5721 5718 5716 5714 5713 5713 5713 5713 5713 5714 5714 5716 5718 5721 5722 5723 5726 5730 5733 5735 5738 5744 5750 5757 5759 5767 5773 5777 5777 5778 5782 5787 5792 5795 5797 5797 5799 5800 5802 5802
5725 5723 5720 5717 5716 5713 5710 5709 5707 5706 5706 5705 5705 5705 5705 5706 5706 5707 5709 5710 5711 5714 5717 5722 5726 5728 5734 5741 5746 5749 5761 5766 5769 5770 5773 5777 5783 5787 5791 5791 5790 5794 5795 5797 5798
5718 5715 5712 5710 5707 5705 5702 5700 5699 5698 5697 5696 5696 5697 5696 5696 5696 5696 5696 5696 5696 5700 5704 5707 5714 5718 5722 5728 5734 5744 5753 5757 5761 5763 5765 5771 5778 5779 5787 5781 5785 5790 5792 5793 5795
5710 5707 5704 5702 5698 5696 5694 5691 5690 5690 5688 5687 5686 5686 5685 5685 5683 5681 5681 5682 5683 5685 5689 5693 5699 5704 5713 5717 5727 5734 5742 5747 5752 5755 5760 5766 5772 5777 5777 5777 5783 5786 5788 5790 5790
5702 5700 5696 5694 5691 5688 5686 5682 5681 5680 5679 5678 5675 5673 5671 5668 5667 5666 5666 5667 5668 5671 5676 5679 5684 5692 5698 5708 5715 5723 5731 5737 5746 5749 5755 5760 5769 5771 5769 5774 5778 5781 5783 5785 5786
5694 5692 5689 5686 5683 5680 5677 5674 5673 5671 5670 5667 5663 5659 5657 5655 5652 5651 5652 5654 5656 5659 5662 5666 5671 5681 5688 5697 5704 5711 5721 5731 5737 5743 5749 5752 5765 5764 5764 5770 5773 5776 5778 5780 5781
5687 5685 5682 5678 5674 5671 5669 5666 5665 5661 5659 5655 5651 5646 5644 5641 5638 5638 5640 5641 5643 5645 5648 5655 5657 5667 5674 5682 5691 5708 5717 5723 5731 5737 5744 5747 5756 5757 5759 5765 5767 5771 5773 5775 5776
5678 5677 5674 5670 5667 5663 5660 5657 5655 5650 5645 5642 5637 5631 5629 5628 5626 5625 5626 5627 5628 5632 5636 5642 5641 5648 5668 5680 5694 5702 5708 5717 5727 5732 5736 5742 5748 5751 5755 5758 5762 5765 5768 5770 5771
5670 5668 5667 5663 5659 5656 5652 5648 5643 5638 5630 5626 5620 5617 5614 5614 5614 5614 5613 5614 5615 5618 5618 5617 5617 5643 5663 5672 5680 5692 5700 5712 5721 5723 5731 5736 5741 5746 5749 5752 5757 5760 5762 5765 5766
5661 5660 5658 5655 5651 5647 5644 5639 5633 5627 5618 5612 5609 5605 5603 5602 5602 5601 5601 5601 5601 5600 5601 5602 5613 5632 5643 5657 5670 5683 5694 5708 5715 5716 5727 5730 5736 5741 5744 5744 5751 5754 5757 5760 5761
5652 5651 5650 5647 5645 5639 5636 5630 5624 5616 5604 5601 5598 5593 5591 5590 5588 5588 5589 5590 5589 5591 5594 5595 5606 5614 5631 5647 5665 5678 5693 5701 5706 5712 5722 5724 5732 5732 5735 5740 5745 5748 5752 5754 5756
5643 5642 5642 5639 5636 5633 5629 5623 5615 5608 5595 5589 5586 5583 5581 5581 5579 5578 5579 5579 5582 5585 5587 5594 5603 5612 5622 5642 5662 5676 5688 5695 5700 5709 5712 5719 5725 5730 5730 5734 5739 5743 5746 5749 5751
5633 5634 5634 5632 5628 5626 5620 5614 5608 5600 5586 5580 5577 5575 5572 5571 5569 5569 5571 5573 5576 5579 5583 5592 5603 5612 5629 5641 5658 5673 5684 5692 5696 5700 5708 5715 5721 5724 5725 5728 5733 5737 5740 5743 5746
5625 5626 5626 5623 5621 5618 5611 5607 5600 5590 5583 5575 5570 5566 5561 5560 5560 5563 5565 5567 5572 5576 5581 5588 5597 5608 5620 5630 5652 5661 5674 5682 5685 5694 5706 5708 5714 5720 5718 5723 5728 5732 5735 5738 5740
5616 5618 5619 5616 5614 5611 5605 5600 5593 5585 5578 5570 5564 5556 5553 5554 5555 5559 5561 5564 5569 5575 5584 5589 5599 5607 5624 5632 5642 5659 5670 5675 5679 5688 5701 5706 5709 5712 5716 5719 5723 5727 5730 5733 5735
5608 5610 5612 5609 5606 5604 5599 5594 5588 5580 5574 5566 5560 5551 5549 5550 5552 5557 5560 5565 5570 5577 5583 5594 5604 5614 5625 5634 5644 5653 5658 5668 5678 5688 5696 5703 5705 5710 5712 5716 5719 5723 5726 5728 5729
5600 5602 5604 5603 5601 5597 5594 5590 5583 5577 5570 5564 5558 5552 5548 5550 5554 5556 5561 5567 5572 5577 5586 5600 5610 5619 5621 5635 5643 5652 5660 5668 5677 5688 5693 5697 5701 5703 5709 5713 5717 5719 5721 5724 5725
5592 5596 5597 5596 5596 5592 5589 5586 5581 5575 5569 5563 5559 5554 5554 5555 5558 5561 5566 5571 5573 5581 5589 5600 5612 5617 5618 5631 5640 5648 5655 5667 5676 5684 5690 5696 5699 5701 5706 5708 5712 5714 5716 5718 5719
5585 5589 5591 5590 5591 5588 5586 5583 5579 5573 5568 5563 5561 5559 5559 5561 5565 5570 5572 5574 5578 5581 5589 5597 5607 5614 5623 5632 5642 5648 5658 5667 5675 5683 5687 5693 5694 5698 5702 5705 5708 5709 5711 5713 5714
5578 5583 5584 5585 5585 5583 5583 5580 5577 5573 5570 5565 5563 5565 5566 5568 5572 5575 5579 5582 5583 5589 5595 5602 5608 5617 5627 5637 5641 5649 5658 5666 5673 5678 5684 5689 5692 5696 5698 5700 5701 5703 5706 5707 5708
5572 5577 5579 5580 5579 5578 5578 5577 5575 5572 5571 5568 5567 5568 5570 5573 5576 5579 5583 5589 5592 5597 5602 5609 5615 5621 5632 5640 5648 5654 5659 5665 5671 5674 5681 5684 5686 5692 5692 5693 5697 5699 5700 5701 5701
5565 5571 5573 5575 5574 5574 5573 5574 5574 5571 5571 5571 5571 5570 5573 5577 5580 5583 5584 5591 5598 5602 5608 5613 5618 5625 5630 5638 5645 5651 5656 5659 5664 5673 5675 5680 5683 5685 5686 5690 5692 5694 5695 5695 5695
5560 5565 5567 5570 5569 5570 5570 5571 5571 5570 5569 5571 5573 5574 5576 5580 5585 5590 5591 5595 5601 5605 5610 5616 5621 5627 5631 5637 5642 5646 5651 5656 5661 5667 5670 5675 5679 5680 5682 5684 5686 5687 5688 5689 5689
5553 5558 5561 5564 5564 5566 5567 5568 5568 5567 5566 5569 5573 5576 5578 5580 5585 5590 5596 5599 5603 5608 5613 5617 5621 5626 5629 5634 5638 5643 5649 5653 5661 5665 5667 5672 5677 5675 5678 5678 5680 5682 5683 5683 5684